• In Hungary
  • List of Countries
  • For 7 days
  • Water Temperature
  • Satellite Maps
  • Weather Map
  • News
  • Weather Widgets
  • user-avatar
    Login

    Hourly Weather Snopki

    Today, 17 October, Tuesday

    Time Temperature Precipitation Wind Pressure Humidity
    00:00 +12°C° 0 mm 3 mps 755 mmHg 95%
    01:00 +13°C° 0 mm 2 mps 755 mmHg 96%
    02:00 +12°C° 0 mm 2 mps 755 mmHg 96%
    03:00 +12°C° 0 mm 2 mps 755 mmHg 96%
    04:00 +12°C° 0 mm 2 mps 755 mmHg 97%
    05:00 +12°C° 0.1 mm 2 mps 755 mmHg 97%
    06:00 +12°C° 0.1 mm 2 mps 755 mmHg 97%
    07:00 +12°C° 0 mm 2 mps 756 mmHg 96%
    08:00 +14°C° 0 mm 2 mps 756 mmHg 91%
    09:00 +14°C° 0 mm 3 mps 756 mmHg 85%
    10:00 +17°C° 0 mm 3 mps 756 mmHg 80%
    11:00 +18°C° 0 mm 3 mps 755 mmHg 76%
    12:00 +19°C° 0 mm 4 mps 755 mmHg 72%
    13:00 +20°C° 0 mm 4 mps 754 mmHg 69%
    14:00 +19°C° 0 mm 4 mps 754 mmHg 72%
    15:00 +19°C° 0 mm 4 mps 753 mmHg 75%
    16:00 +18°C° 0 mm 4 mps 753 mmHg 78%
    17:00 +17°C° 0 mm 4 mps 753 mmHg 79%
    18:00 +17°C° 0 mm 4 mps 753 mmHg 81%
    19:00 +15°C° 0 mm 4 mps 753 mmHg 83%
    20:00 +14°C° 0 mm 4 mps 752 mmHg 84%
    21:00 +14°C° 0 mm 3 mps 752 mmHg 86%
    22:00 +14°C° 0 mm 3 mps 752 mmHg 87%
    23:00 +13°C° 0 mm 3 mps 752 mmHg 88%

    Tomorrow, 18 October, Wednesday

    Time Temperature Precipitation Wind Pressure Humidity
    00:00 +13°C° 0 mm 3 mps 752 mmHg 89%
    01:00 +12°C° 0 mm 3 mps 752 mmHg 91%
    02:00 +12°C° 0 mm 3 mps 751 mmHg 92%
    03:00 +12°C° 0 mm 3 mps 751 mmHg 92%
    04:00 +12°C° 0 mm 3 mps 750 mmHg 93%
    05:00 +12°C° 0 mm 3 mps 750 mmHg 93%
    06:00 +12°C° 0 mm 3 mps 750 mmHg 94%
    07:00 +12°C° 0 mm 3 mps 750 mmHg 94%
    08:00 +13°C° 0 mm 3 mps 751 mmHg 85%
    09:00 +15°C° 0 mm 4 mps 751 mmHg 77%
    10:00 +17°C° 0 mm 4 mps 751 mmHg 68%
    11:00 +18°C° 0 mm 4 mps 751 mmHg 65%
    12:00 +18°C° 0 mm 4 mps 751 mmHg 61%
    13:00 +19°C° 0 mm 4 mps 751 mmHg 58%
    14:00 +18°C° 0 mm 3 mps 750 mmHg 62%
    15:00 +17°C° 0 mm 3 mps 750 mmHg 66%
    16:00 +16°C° 0 mm 2 mps 750 mmHg 70%
    17:00 +14°C° 0 mm 2 mps 750 mmHg 75%
    18:00 +13°C° 0 mm 1 mps 750 mmHg 79%
    19:00 +12°C° 0 mm 1 mps 750 mmHg 83%
    20:00 +12°C° 0 mm 1 mps 750 mmHg 85%
    21:00 +11°C° 0 mm 1 mps 750 mmHg 87%
    22:00 +11°C° 0 mm 1 mps 751 mmHg 89%
    23:00 +11°C° 0 mm 1 mps 751 mmHg 90%

    Day after tomorrow, 19 October, Thursday

    Time Temperature Precipitation Wind Pressure Humidity
    00:00 +10°C° 0 mm 1 mps 751 mmHg 91%
    01:00 +10°C° 0 mm 1 mps 751 mmHg 92%
    02:00 +10°C° 0 mm 1 mps 751 mmHg 93%
    03:00 +10°C° 0 mm 1 mps 751 mmHg 93%
    04:00 +10°C° 0 mm 1 mps 751 mmHg 94%
    05:00 +10°C° 0 mm 1 mps 751 mmHg 95%
    06:00 +10°C° 0 mm 1 mps 751 mmHg 95%
    07:00 +10°C° 0 mm 1 mps 751 mmHg 95%
    08:00 +11°C° 0 mm 1 mps 752 mmHg 91%
    09:00 +12°C° 0 mm 2 mps 752 mmHg 86%
    10:00 +13°C° 0 mm 2 mps 752 mmHg 81%
    11:00 +14°C° 0 mm 2 mps 752 mmHg 79%
    12:00 +14°C° 0 mm 2 mps 752 mmHg 76%
    13:00 +14°C° 0 mm 2 mps 752 mmHg 74%
    14:00 +14°C° 0 mm 2 mps 752 mmHg 75%
    15:00 +13°C° 0 mm 2 mps 752 mmHg 76%
    16:00 +13°C° 0 mm 2 mps 752 mmHg 77%
    17:00 +12°C° 0 mm 2 mps 753 mmHg 78%
    18:00 +10°C° 0 mm 3 mps 753 mmHg 78%
    19:00 +9°C° 0 mm 3 mps 754 mmHg 78%
    20:00 +8°C° 0 mm 3 mps 754 mmHg 77%
    21:00 +8°C° 0 mm 3 mps 754 mmHg 76%
    22:00 +7°C° 0 mm 3 mps 755 mmHg 75%
    23:00 +7°C° 0 mm 3 mps 755 mmHg 77%

    20 October, Friday

    Time Temperature Precipitation Wind Pressure Humidity
    00:00 +5°C° 0 mm 3 mps 755 mmHg 78%
    01:00 +5°C° 0 mm 3 mps 755 mmHg 80%
    02:00 +5°C° 0 mm 3 mps 755 mmHg 81%
    03:00 +4°C° 0 mm 3 mps 755 mmHg 83%
    04:00 +4°C° 0 mm 3 mps 755 mmHg 84%
    05:00 +4°C° 0 mm 3 mps 756 mmHg 84%
    06:00 +4°C° 0 mm 3 mps 756 mmHg 84%
    07:00 +4°C° 0 mm 3 mps 756 mmHg 84%
    08:00 +5°C° 0 mm 3 mps 756 mmHg 78%
    09:00 +7°C° 0 mm 4 mps 757 mmHg 71%
    10:00 +8°C° 0 mm 4 mps 757 mmHg 64%
    11:00 +10°C° 0 mm 4 mps 757 mmHg 61%
    12:00 +11°C° 0 mm 4 mps 756 mmHg 57%
    13:00 +12°C° 0 mm 4 mps 756 mmHg 54%
    14:00 +11°C° 0 mm 3 mps 756 mmHg 58%
    15:00 +10°C° 0 mm 3 mps 756 mmHg 62%
    16:00 +9°C° 0 mm 3 mps 756 mmHg 65%
    17:00 +8°C° 0 mm 3 mps 756 mmHg 69%
    18:00 +7°C° 0 mm 3 mps 757 mmHg 72%
    19:00 +7°C° 0 mm 3 mps 757 mmHg 75%
    20:00 +5°C° 0 mm 3 mps 757 mmHg 76%
    21:00 +5°C° 0 mm 3 mps 757 mmHg 78%
    22:00 +5°C° 0 mm 3 mps 757 mmHg 79%
    23:00 +4°C° 0 mm 3 mps 757 mmHg 80%

    21 October, Saturday

    Time Temperature Precipitation Wind Pressure Humidity
    00:00 +4°C° 0 mm 3 mps 757 mmHg 81%
    01:00 +4°C° 0 mm 3 mps 757 mmHg 82%
    02:00 +4°C° 0 mm 3 mps 757 mmHg 82%
    03:00 +4°C° 0 mm 3 mps 756 mmHg 83%
    04:00 +3°C° 0 mm 3 mps 756 mmHg 84%
    05:00 +4°C° 0 mm 3 mps 756 mmHg 83%
    06:00 +4°C° 0 mm 3 mps 756 mmHg 82%
    07:00 +4°C° 0 mm 4 mps 756 mmHg 80%
    08:00 +5°C° 0 mm 4 mps 756 mmHg 77%
    09:00 +6°C° 0 mm 4 mps 757 mmHg 74%
    10:00 +7°C° 0 mm 4 mps 757 mmHg 71%
    11:00 +8°C° 0 mm 4 mps 756 mmHg 70%
    12:00 +10°C° 0 mm 4 mps 756 mmHg 68%
    13:00 +10°C° 0 mm 4 mps 756 mmHg 67%
    14:00 +10°C° 0 mm 4 mps 756 mmHg 69%
    15:00 +10°C° 0 mm 4 mps 756 mmHg 72%
    16:00 +9°C° 0 mm 3 mps 755 mmHg 74%
    17:00 +8°C° 0 mm 4 mps 756 mmHg 75%
    18:00 +7°C° 0 mm 4 mps 756 mmHg 77%
    19:00 +6°C° 0 mm 4 mps 756 mmHg 79%
    20:00 +6°C° 0 mm 4 mps 756 mmHg 80%
    21:00 +6°C° 0 mm 4 mps 756 mmHg 80%
    22:00 +5°C° 0 mm 4 mps 756 mmHg 81%
    23:00 +5°C° 0 mm 4 mps 756 mmHg 81%

    22 October, Sunday

    Time Temperature Precipitation Wind Pressure Humidity
    00:00 +5°C° 0 mm 4 mps 755 mmHg 82%
    01:00 +5°C° 0 mm 4 mps 755 mmHg 82%
    02:00 +4°C° 0 mm 4 mps 755 mmHg 82%
    03:00 +4°C° 0 mm 4 mps 755 mmHg 83%
    04:00 +4°C° 0 mm 4 mps 755 mmHg 83%
    05:00 +4°C° 0 mm 4 mps 754 mmHg 83%
    06:00 +4°C° 0 mm 4 mps 754 mmHg 83%
    07:00 +4°C° 0 mm 4 mps 754 mmHg 83%
    08:00 +5°C° 0 mm 4 mps 754 mmHg 79%
    09:00 +7°C° 0 mm 4 mps 753 mmHg 75%
    10:00 +8°C° 0 mm 5 mps 753 mmHg 70%
    11:00 +10°C° 0 mm 4 mps 753 mmHg 69%
    12:00 +11°C° 0 mm 4 mps 753 mmHg 67%
    13:00 +12°C° 0 mm 4 mps 752 mmHg 66%
    14:00 +11°C° 0.1 mm 4 mps 752 mmHg 70%
    15:00 +11°C° 0.1 mm 3 mps 752 mmHg 74%
    16:00 +10°C° 0.1 mm 3 mps 751 mmHg 77%
    17:00 +10°C° 0.3 mm 3 mps 751 mmHg 80%
    18:00 +10°C° 0.3 mm 3 mps 751 mmHg 84%
    19:00 +9°C° 0.3 mm 3 mps 751 mmHg 87%
    20:00 +9°C° 0.4 mm 3 mps 751 mmHg 88%
    21:00 +9°C° 0.4 mm 2 mps 751 mmHg 90%
    22:00 +10°C° 0.4 mm 2 mps 750 mmHg 92%
    23:00 +10°C° 0.3 mm 2 mps 750 mmHg 93%
    Show more